Index of /20260412/WXO-DD/model_gdps/15km/12/075
Name Last modified Size Description
Parent Directory -
20260412T12Z_MSC_GDPS_AbsoluteVorticity_IsbL-0200_LatLon0.15_PT075H.grib2 2026-04-12 16:33 1.2M
20260412T12Z_MSC_GDPS_AbsoluteVorticity_IsbL-0250_LatLon0.15_PT075H.grib2 2026-04-12 16:33 1.3M
20260412T12Z_MSC_GDPS_AbsoluteVorticity_IsbL-0500_LatLon0.15_PT075H.grib2 2026-04-12 16:33 1.2M
20260412T12Z_MSC_GDPS_AbsoluteVorticity_IsbL-0700_LatLon0.15_PT075H.grib2 2026-04-12 16:33 1.3M
20260412T12Z_MSC_GDPS_AbsoluteVorticity_IsbL-0850_LatLon0.15_PT075H.grib2 2026-04-12 16:33 1.6M
20260412T12Z_MSC_GDPS_AirTemp_AGL-120m_LatLon0.15_PT075H.grib2 2026-04-12 16:33 914K
20260412T12Z_MSC_GDPS_AirTemp_AGL-2m_LatLon0.15_PT075H.grib2 2026-04-12 16:33 1.0M
20260412T12Z_MSC_GDPS_AirTemp_AGL-40m_LatLon0.15_PT075H.grib2 2026-04-12 16:33 934K
20260412T12Z_MSC_GDPS_AirTemp_AGL-80m_LatLon0.15_PT075H.grib2 2026-04-12 16:33 923K
20260412T12Z_MSC_GDPS_AirTemp_IsbL-0001_LatLon0.15_PT075H.grib2 2026-04-12 16:33 697K
20260412T12Z_MSC_GDPS_AirTemp_IsbL-0005_LatLon0.15_PT075H.grib2 2026-04-12 16:33 682K
20260412T12Z_MSC_GDPS_AirTemp_IsbL-0010_LatLon0.15_PT075H.grib2 2026-04-12 16:33 755K
20260412T12Z_MSC_GDPS_AirTemp_IsbL-0020_LatLon0.15_PT075H.grib2 2026-04-12 16:33 699K
20260412T12Z_MSC_GDPS_AirTemp_IsbL-0030_LatLon0.15_PT075H.grib2 2026-04-12 16:33 751K
20260412T12Z_MSC_GDPS_AirTemp_IsbL-0050_LatLon0.15_PT075H.grib2 2026-04-12 16:33 815K
20260412T12Z_MSC_GDPS_AirTemp_IsbL-0100_LatLon0.15_PT075H.grib2 2026-04-12 16:33 951K
20260412T12Z_MSC_GDPS_AirTemp_IsbL-0150_LatLon0.15_PT075H.grib2 2026-04-12 16:33 961K
20260412T12Z_MSC_GDPS_AirTemp_IsbL-0175_LatLon0.15_PT075H.grib2 2026-04-12 16:33 949K
20260412T12Z_MSC_GDPS_AirTemp_IsbL-0200_LatLon0.15_PT075H.grib2 2026-04-12 16:33 960K
20260412T12Z_MSC_GDPS_AirTemp_IsbL-0225_LatLon0.15_PT075H.grib2 2026-04-12 16:33 967K
20260412T12Z_MSC_GDPS_AirTemp_IsbL-0250_LatLon0.15_PT075H.grib2 2026-04-12 16:33 1.0M
20260412T12Z_MSC_GDPS_AirTemp_IsbL-0275_LatLon0.15_PT075H.grib2 2026-04-12 16:33 941K
20260412T12Z_MSC_GDPS_AirTemp_IsbL-0300_LatLon0.15_PT075H.grib2 2026-04-12 16:33 952K
20260412T12Z_MSC_GDPS_AirTemp_IsbL-0350_LatLon0.15_PT075H.grib2 2026-04-12 16:33 928K
20260412T12Z_MSC_GDPS_AirTemp_IsbL-0400_LatLon0.15_PT075H.grib2 2026-04-12 16:33 939K
20260412T12Z_MSC_GDPS_AirTemp_IsbL-0450_LatLon0.15_PT075H.grib2 2026-04-12 16:33 958K
20260412T12Z_MSC_GDPS_AirTemp_IsbL-0500_LatLon0.15_PT075H.grib2 2026-04-12 16:33 1.0M
20260412T12Z_MSC_GDPS_AirTemp_IsbL-0550_LatLon0.15_PT075H.grib2 2026-04-12 16:33 797K
20260412T12Z_MSC_GDPS_AirTemp_IsbL-0600_LatLon0.15_PT075H.grib2 2026-04-12 16:33 891K
20260412T12Z_MSC_GDPS_AirTemp_IsbL-0650_LatLon0.15_PT075H.grib2 2026-04-12 16:33 921K
20260412T12Z_MSC_GDPS_AirTemp_IsbL-0700_LatLon0.15_PT075H.grib2 2026-04-12 16:33 957K
20260412T12Z_MSC_GDPS_AirTemp_IsbL-0750_LatLon0.15_PT075H.grib2 2026-04-12 16:33 1.0M
20260412T12Z_MSC_GDPS_AirTemp_IsbL-0800_LatLon0.15_PT075H.grib2 2026-04-12 16:33 1.1M
20260412T12Z_MSC_GDPS_AirTemp_IsbL-0850_LatLon0.15_PT075H.grib2 2026-04-12 16:33 1.1M
20260412T12Z_MSC_GDPS_AirTemp_IsbL-0875_LatLon0.15_PT075H.grib2 2026-04-12 16:33 1.2M
20260412T12Z_MSC_GDPS_AirTemp_IsbL-0900_LatLon0.15_PT075H.grib2 2026-04-12 16:33 1.2M
20260412T12Z_MSC_GDPS_AirTemp_IsbL-0925_LatLon0.15_PT075H.grib2 2026-04-12 16:33 1.1M
20260412T12Z_MSC_GDPS_AirTemp_IsbL-0950_LatLon0.15_PT075H.grib2 2026-04-12 16:33 1.1M
20260412T12Z_MSC_GDPS_AirTemp_IsbL-0970_LatLon0.15_PT075H.grib2 2026-04-12 16:33 1.2M
20260412T12Z_MSC_GDPS_AirTemp_IsbL-0985_LatLon0.15_PT075H.grib2 2026-04-12 16:33 1.1M
20260412T12Z_MSC_GDPS_AirTemp_IsbL-1000_LatLon0.15_PT075H.grib2 2026-04-12 16:33 1.1M
20260412T12Z_MSC_GDPS_AirTemp_IsbL-1015_LatLon0.15_PT075H.grib2 2026-04-12 16:33 1.1M
20260412T12Z_MSC_GDPS_Albedo_Sfc_LatLon0.15_PT075H.grib2 2026-04-12 16:33 246K
20260412T12Z_MSC_GDPS_CAPE_Sfc_LatLon0.15_PT075H.grib2 2026-04-12 16:33 3.7M
20260412T12Z_MSC_GDPS_CIN_Sfc_LatLon0.15_PT075H.grib2 2026-04-12 16:33 2.8M
20260412T12Z_MSC_GDPS_CloudWater_EAtm_LatLon0.15_PT075H.grib2 2026-04-12 16:33 530K
20260412T12Z_MSC_GDPS_ConvectivePrecip-Accum_Sfc_LatLon0.15_PT075H.grib2 2026-04-12 16:33 2.9M
20260412T12Z_MSC_GDPS_DewPointDepression_AGL-2m_LatLon0.15_PT075H.grib2 2026-04-12 16:33 757K
20260412T12Z_MSC_GDPS_DewPointDepression_IsbL-0010_LatLon0.15_PT075H.grib2 2026-04-12 16:33 17K
20260412T12Z_MSC_GDPS_DewPointDepression_IsbL-0020_LatLon0.15_PT075H.grib2 2026-04-12 16:33 47K
20260412T12Z_MSC_GDPS_DewPointDepression_IsbL-0030_LatLon0.15_PT075H.grib2 2026-04-12 16:33 70K
20260412T12Z_MSC_GDPS_DewPointDepression_IsbL-0050_LatLon0.15_PT075H.grib2 2026-04-12 16:33 357K
20260412T12Z_MSC_GDPS_DewPointDepression_IsbL-0100_LatLon0.15_PT075H.grib2 2026-04-12 16:33 374K
20260412T12Z_MSC_GDPS_DewPointDepression_IsbL-0150_LatLon0.15_PT075H.grib2 2026-04-12 16:33 453K
20260412T12Z_MSC_GDPS_DewPointDepression_IsbL-0175_LatLon0.15_PT075H.grib2 2026-04-12 16:33 531K
20260412T12Z_MSC_GDPS_DewPointDepression_IsbL-0200_LatLon0.15_PT075H.grib2 2026-04-12 16:33 630K
20260412T12Z_MSC_GDPS_DewPointDepression_IsbL-0225_LatLon0.15_PT075H.grib2 2026-04-12 16:33 755K
20260412T12Z_MSC_GDPS_DewPointDepression_IsbL-0250_LatLon0.15_PT075H.grib2 2026-04-12 16:33 864K
20260412T12Z_MSC_GDPS_DewPointDepression_IsbL-0275_LatLon0.15_PT075H.grib2 2026-04-12 16:33 884K
20260412T12Z_MSC_GDPS_DewPointDepression_IsbL-0300_LatLon0.15_PT075H.grib2 2026-04-12 16:33 929K
20260412T12Z_MSC_GDPS_DewPointDepression_IsbL-0350_LatLon0.15_PT075H.grib2 2026-04-12 16:33 967K
20260412T12Z_MSC_GDPS_DewPointDepression_IsbL-0400_LatLon0.15_PT075H.grib2 2026-04-12 16:33 1.0M
20260412T12Z_MSC_GDPS_DewPointDepression_IsbL-0450_LatLon0.15_PT075H.grib2 2026-04-12 16:33 1.0M
20260412T12Z_MSC_GDPS_DewPointDepression_IsbL-0500_LatLon0.15_PT075H.grib2 2026-04-12 16:33 1.0M
20260412T12Z_MSC_GDPS_DewPointDepression_IsbL-0550_LatLon0.15_PT075H.grib2 2026-04-12 16:33 1.0M
20260412T12Z_MSC_GDPS_DewPointDepression_IsbL-0600_LatLon0.15_PT075H.grib2 2026-04-12 16:33 1.1M
20260412T12Z_MSC_GDPS_DewPointDepression_IsbL-0650_LatLon0.15_PT075H.grib2 2026-04-12 16:33 1.1M
20260412T12Z_MSC_GDPS_DewPointDepression_IsbL-0700_LatLon0.15_PT075H.grib2 2026-04-12 16:33 1.1M
20260412T12Z_MSC_GDPS_DewPointDepression_IsbL-0750_LatLon0.15_PT075H.grib2 2026-04-12 16:33 1.1M
20260412T12Z_MSC_GDPS_DewPointDepression_IsbL-0800_LatLon0.15_PT075H.grib2 2026-04-12 16:33 1.2M
20260412T12Z_MSC_GDPS_DewPointDepression_IsbL-0850_LatLon0.15_PT075H.grib2 2026-04-12 16:33 1.1M
20260412T12Z_MSC_GDPS_DewPointDepression_IsbL-0875_LatLon0.15_PT075H.grib2 2026-04-12 16:33 1.1M
20260412T12Z_MSC_GDPS_DewPointDepression_IsbL-0900_LatLon0.15_PT075H.grib2 2026-04-12 16:33 1.1M
20260412T12Z_MSC_GDPS_DewPointDepression_IsbL-0925_LatLon0.15_PT075H.grib2 2026-04-12 16:33 1.0M
20260412T12Z_MSC_GDPS_DewPointDepression_IsbL-0950_LatLon0.15_PT075H.grib2 2026-04-12 16:33 1.0M
20260412T12Z_MSC_GDPS_DewPointDepression_IsbL-0970_LatLon0.15_PT075H.grib2 2026-04-12 16:33 1.0M
20260412T12Z_MSC_GDPS_DewPointDepression_IsbL-0985_LatLon0.15_PT075H.grib2 2026-04-12 16:33 1.0M
20260412T12Z_MSC_GDPS_DewPointDepression_IsbL-1000_LatLon0.15_PT075H.grib2 2026-04-12 16:33 1.0M
20260412T12Z_MSC_GDPS_DewPointDepression_IsbL-1015_LatLon0.15_PT075H.grib2 2026-04-12 16:33 919K
20260412T12Z_MSC_GDPS_DewPoint_AGL-2m_LatLon0.15_PT075H.grib2 2026-04-12 16:33 619K
20260412T12Z_MSC_GDPS_DownwardLongwaveRadiationFlux-Accum_Sfc_LatLon0.15_PT075H.grib2 2026-04-12 16:33 913K
20260412T12Z_MSC_GDPS_DownwardShortwaveRadiationFlux-Accum_NTAtm_LatLon0.15_PT075H.grib2 2026-04-12 16:33 205K
20260412T12Z_MSC_GDPS_DownwardShortwaveRadiationFlux-Accum_Sfc_LatLon0.15_PT075H.grib2 2026-04-12 16:33 1.1M
20260412T12Z_MSC_GDPS_FreezingRain-Accum1h_Sfc_LatLon0.15_PT075H.grib2 2026-04-12 16:33 41K
20260412T12Z_MSC_GDPS_FreezingRain-Accum3h_Sfc_LatLon0.15_PT075H.grib2 2026-04-12 16:33 51K
20260412T12Z_MSC_GDPS_FreezingRain-Accum_Sfc_LatLon0.15_PT075H.grib2 2026-04-12 16:33 192K
20260412T12Z_MSC_GDPS_GeopotentialHeight_IsbL-0001_LatLon0.15_PT075H.grib2 2026-04-12 16:33 543K
20260412T12Z_MSC_GDPS_GeopotentialHeight_IsbL-0005_LatLon0.15_PT075H.grib2 2026-04-12 16:33 509K
20260412T12Z_MSC_GDPS_GeopotentialHeight_IsbL-0010_LatLon0.15_PT075H.grib2 2026-04-12 16:33 588K
20260412T12Z_MSC_GDPS_GeopotentialHeight_IsbL-0020_LatLon0.15_PT075H.grib2 2026-04-12 16:33 583K
20260412T12Z_MSC_GDPS_GeopotentialHeight_IsbL-0030_LatLon0.15_PT075H.grib2 2026-04-12 16:33 584K
20260412T12Z_MSC_GDPS_GeopotentialHeight_IsbL-0050_LatLon0.15_PT075H.grib2 2026-04-12 16:33 514K
20260412T12Z_MSC_GDPS_GeopotentialHeight_IsbL-0100_LatLon0.15_PT075H.grib2 2026-04-12 16:33 616K
20260412T12Z_MSC_GDPS_GeopotentialHeight_IsbL-0150_LatLon0.15_PT075H.grib2 2026-04-12 16:33 630K
20260412T12Z_MSC_GDPS_GeopotentialHeight_IsbL-0175_LatLon0.15_PT075H.grib2 2026-04-12 16:33 633K
20260412T12Z_MSC_GDPS_GeopotentialHeight_IsbL-0200_LatLon0.15_PT075H.grib2 2026-04-12 16:33 637K
20260412T12Z_MSC_GDPS_GeopotentialHeight_IsbL-0225_LatLon0.15_PT075H.grib2 2026-04-12 16:33 632K
20260412T12Z_MSC_GDPS_GeopotentialHeight_IsbL-0250_LatLon0.15_PT075H.grib2 2026-04-12 16:33 637K
20260412T12Z_MSC_GDPS_GeopotentialHeight_IsbL-0275_LatLon0.15_PT075H.grib2 2026-04-12 16:33 637K
20260412T12Z_MSC_GDPS_GeopotentialHeight_IsbL-0300_LatLon0.15_PT075H.grib2 2026-04-12 16:33 637K
20260412T12Z_MSC_GDPS_GeopotentialHeight_IsbL-0350_LatLon0.15_PT075H.grib2 2026-04-12 16:33 627K
20260412T12Z_MSC_GDPS_GeopotentialHeight_IsbL-0400_LatLon0.15_PT075H.grib2 2026-04-12 16:33 615K
20260412T12Z_MSC_GDPS_GeopotentialHeight_IsbL-0450_LatLon0.15_PT075H.grib2 2026-04-12 16:33 536K
20260412T12Z_MSC_GDPS_GeopotentialHeight_IsbL-0500_LatLon0.15_PT075H.grib2 2026-04-12 16:33 525K
20260412T12Z_MSC_GDPS_GeopotentialHeight_IsbL-0550_LatLon0.15_PT075H.grib2 2026-04-12 16:33 686K
20260412T12Z_MSC_GDPS_GeopotentialHeight_IsbL-0600_LatLon0.15_PT075H.grib2 2026-04-12 16:33 684K
20260412T12Z_MSC_GDPS_GeopotentialHeight_IsbL-0650_LatLon0.15_PT075H.grib2 2026-04-12 16:33 683K
20260412T12Z_MSC_GDPS_GeopotentialHeight_IsbL-0700_LatLon0.15_PT075H.grib2 2026-04-12 16:33 688K
20260412T12Z_MSC_GDPS_GeopotentialHeight_IsbL-0750_LatLon0.15_PT075H.grib2 2026-04-12 16:33 689K
20260412T12Z_MSC_GDPS_GeopotentialHeight_IsbL-0800_LatLon0.15_PT075H.grib2 2026-04-12 16:33 703K
20260412T12Z_MSC_GDPS_GeopotentialHeight_IsbL-0850_LatLon0.15_PT075H.grib2 2026-04-12 16:33 713K
20260412T12Z_MSC_GDPS_GeopotentialHeight_IsbL-0875_LatLon0.15_PT075H.grib2 2026-04-12 16:33 714K
20260412T12Z_MSC_GDPS_GeopotentialHeight_IsbL-0900_LatLon0.15_PT075H.grib2 2026-04-12 16:33 723K
20260412T12Z_MSC_GDPS_GeopotentialHeight_IsbL-0925_LatLon0.15_PT075H.grib2 2026-04-12 16:33 732K
20260412T12Z_MSC_GDPS_GeopotentialHeight_IsbL-0950_LatLon0.15_PT075H.grib2 2026-04-12 16:33 737K
20260412T12Z_MSC_GDPS_GeopotentialHeight_IsbL-0970_LatLon0.15_PT075H.grib2 2026-04-12 16:33 751K
20260412T12Z_MSC_GDPS_GeopotentialHeight_IsbL-0985_LatLon0.15_PT075H.grib2 2026-04-12 16:33 766K
20260412T12Z_MSC_GDPS_GeopotentialHeight_IsbL-1000_LatLon0.15_PT075H.grib2 2026-04-12 16:33 788K
20260412T12Z_MSC_GDPS_GeopotentialHeight_IsbL-1015_LatLon0.15_PT075H.grib2 2026-04-12 16:33 810K
20260412T12Z_MSC_GDPS_Humidex_Sfc_LatLon0.15_PT075H.grib2 2026-04-12 16:33 5.3M
20260412T12Z_MSC_GDPS_IcePellets-Accum1h_Sfc_LatLon0.15_PT075H.grib2 2026-04-12 16:33 12K
20260412T12Z_MSC_GDPS_IcePellets-Accum3h_Sfc_LatLon0.15_PT075H.grib2 2026-04-12 16:33 15K
20260412T12Z_MSC_GDPS_IcePellets-Accum_Sfc_LatLon0.15_PT075H.grib2 2026-04-12 16:33 91K
20260412T12Z_MSC_GDPS_KIndex_Sfc_LatLon0.15_PT075H.grib2 2026-04-12 16:33 6.5M
20260412T12Z_MSC_GDPS_LatentHeatNetFlux_Sfc_LatLon0.15_PT075H.grib2 2026-04-12 16:33 522K
20260412T12Z_MSC_GDPS_LiftedIndex-MU-VT_IsbL-0500_LatLon0.15_PT075H.grib2 2026-04-12 16:33 5.4M
20260412T12Z_MSC_GDPS_NetLongwaveRadiationFlux-Accum_Sfc_LatLon0.15_PT075H.grib2 2026-04-12 16:33 1.0M
20260412T12Z_MSC_GDPS_NetShortwaveRadiationFlux-Accum_Sfc_LatLon0.15_PT075H.grib2 2026-04-12 16:33 1.1M
20260412T12Z_MSC_GDPS_O3MixingRatio_LatLon0.15_PT075H.grib2 2026-04-12 17:05 2.3M
20260412T12Z_MSC_GDPS_O3_EAtm_LatLon0.15_PT075H.grib2 2026-04-12 17:05 2.1M
20260412T12Z_MSC_GDPS_PlanetaryBoundaryLayerHeight_Sfc_LatLon0.15_PT075H.grib2 2026-04-12 16:33 2.5M
20260412T12Z_MSC_GDPS_Precip-Accum1h_Sfc_LatLon0.15_PT075H.grib2 2026-04-12 16:33 3.2M
20260412T12Z_MSC_GDPS_Precip-Accum3h_Sfc_LatLon0.15_PT075H.grib2 2026-04-12 16:33 3.5M
20260412T12Z_MSC_GDPS_Precip-Accum_Sfc_LatLon0.15_PT075H.grib2 2026-04-12 16:33 4.8M
20260412T12Z_MSC_GDPS_PrecipRate_Sfc_LatLon0.15_PT075H.grib2 2026-04-12 16:33 3.1M
20260412T12Z_MSC_GDPS_PrecipType-Instant_Sfc_LatLon0.15_PT075H.grib2 2026-04-12 16:33 1.6M
20260412T12Z_MSC_GDPS_Pressure_MSL_LatLon0.15_PT075H.grib2 2026-04-12 16:33 822K
20260412T12Z_MSC_GDPS_Pressure_PVU-1.5_LatLon0.15_PT075H.grib2 2026-04-12 16:33 5.7M
20260412T12Z_MSC_GDPS_Pressure_PVU-1_LatLon0.15_PT075H.grib2 2026-04-12 16:33 6.0M
20260412T12Z_MSC_GDPS_Pressure_PVU-2_LatLon0.15_PT075H.grib2 2026-04-12 16:33 5.6M
20260412T12Z_MSC_GDPS_Pressure_Sfc_LatLon0.15_PT075H.grib2 2026-04-12 16:33 1.1M
20260412T12Z_MSC_GDPS_RadiativeTemp_Sfc_LatLon0.15_PT075H.grib2 2026-04-12 16:33 672K
20260412T12Z_MSC_GDPS_Rain-Accum1h_Sfc_LatLon0.15_PT075H.grib2 2026-04-12 16:33 1.6M
20260412T12Z_MSC_GDPS_Rain-Accum3h_Sfc_LatLon0.15_PT075H.grib2 2026-04-12 16:33 1.8M
20260412T12Z_MSC_GDPS_Rain-Accum_Sfc_LatLon0.15_PT075H.grib2 2026-04-12 16:33 3.5M
20260412T12Z_MSC_GDPS_RelativeHumidity_AGL-2m_LatLon0.15_PT075H.grib2 2026-04-12 16:33 1.0M
20260412T12Z_MSC_GDPS_RelativeHumidity_IsbL-0010_LatLon0.15_PT075H.grib2 2026-04-12 16:33 253K
20260412T12Z_MSC_GDPS_RelativeHumidity_IsbL-0020_LatLon0.15_PT075H.grib2 2026-04-12 16:33 378K
20260412T12Z_MSC_GDPS_RelativeHumidity_IsbL-0030_LatLon0.15_PT075H.grib2 2026-04-12 16:33 382K
20260412T12Z_MSC_GDPS_RelativeHumidity_IsbL-0050_LatLon0.15_PT075H.grib2 2026-04-12 16:33 322K
20260412T12Z_MSC_GDPS_RelativeHumidity_IsbL-0100_LatLon0.15_PT075H.grib2 2026-04-12 16:33 492K
20260412T12Z_MSC_GDPS_RelativeHumidity_IsbL-0150_LatLon0.15_PT075H.grib2 2026-04-12 16:33 648K
20260412T12Z_MSC_GDPS_RelativeHumidity_IsbL-0175_LatLon0.15_PT075H.grib2 2026-04-12 16:33 766K
20260412T12Z_MSC_GDPS_RelativeHumidity_IsbL-0200_LatLon0.15_PT075H.grib2 2026-04-12 16:33 682K
20260412T12Z_MSC_GDPS_RelativeHumidity_IsbL-0225_LatLon0.15_PT075H.grib2 2026-04-12 16:33 774K
20260412T12Z_MSC_GDPS_RelativeHumidity_IsbL-0250_LatLon0.15_PT075H.grib2 2026-04-12 16:33 859K
20260412T12Z_MSC_GDPS_RelativeHumidity_IsbL-0275_LatLon0.15_PT075H.grib2 2026-04-12 16:33 883K
20260412T12Z_MSC_GDPS_RelativeHumidity_IsbL-0300_LatLon0.15_PT075H.grib2 2026-04-12 16:33 934K
20260412T12Z_MSC_GDPS_RelativeHumidity_IsbL-0350_LatLon0.15_PT075H.grib2 2026-04-12 16:33 961K
20260412T12Z_MSC_GDPS_RelativeHumidity_IsbL-0400_LatLon0.15_PT075H.grib2 2026-04-12 16:33 1.0M
20260412T12Z_MSC_GDPS_RelativeHumidity_IsbL-0450_LatLon0.15_PT075H.grib2 2026-04-12 16:33 1.0M
20260412T12Z_MSC_GDPS_RelativeHumidity_IsbL-0500_LatLon0.15_PT075H.grib2 2026-04-12 16:33 1.0M
20260412T12Z_MSC_GDPS_RelativeHumidity_IsbL-0550_LatLon0.15_PT075H.grib2 2026-04-12 16:33 1.1M
20260412T12Z_MSC_GDPS_RelativeHumidity_IsbL-0600_LatLon0.15_PT075H.grib2 2026-04-12 16:33 1.0M
20260412T12Z_MSC_GDPS_RelativeHumidity_IsbL-0650_LatLon0.15_PT075H.grib2 2026-04-12 16:33 1.1M
20260412T12Z_MSC_GDPS_RelativeHumidity_IsbL-0700_LatLon0.15_PT075H.grib2 2026-04-12 16:33 1.1M
20260412T12Z_MSC_GDPS_RelativeHumidity_IsbL-0750_LatLon0.15_PT075H.grib2 2026-04-12 16:33 1.2M
20260412T12Z_MSC_GDPS_RelativeHumidity_IsbL-0800_LatLon0.15_PT075H.grib2 2026-04-12 16:33 1.3M
20260412T12Z_MSC_GDPS_RelativeHumidity_IsbL-0850_LatLon0.15_PT075H.grib2 2026-04-12 16:33 1.3M
20260412T12Z_MSC_GDPS_RelativeHumidity_IsbL-0875_LatLon0.15_PT075H.grib2 2026-04-12 16:33 1.3M
20260412T12Z_MSC_GDPS_RelativeHumidity_IsbL-0900_LatLon0.15_PT075H.grib2 2026-04-12 16:33 1.2M
20260412T12Z_MSC_GDPS_RelativeHumidity_IsbL-0925_LatLon0.15_PT075H.grib2 2026-04-12 16:33 1.2M
20260412T12Z_MSC_GDPS_RelativeHumidity_IsbL-0950_LatLon0.15_PT075H.grib2 2026-04-12 16:33 1.2M
20260412T12Z_MSC_GDPS_RelativeHumidity_IsbL-0970_LatLon0.15_PT075H.grib2 2026-04-12 16:33 1.2M
20260412T12Z_MSC_GDPS_RelativeHumidity_IsbL-0985_LatLon0.15_PT075H.grib2 2026-04-12 16:33 1.2M
20260412T12Z_MSC_GDPS_RelativeHumidity_IsbL-1000_LatLon0.15_PT075H.grib2 2026-04-12 16:33 1.1M
20260412T12Z_MSC_GDPS_RelativeHumidity_IsbL-1015_LatLon0.15_PT075H.grib2 2026-04-12 16:33 1.1M
20260412T12Z_MSC_GDPS_RelativeVorticity_IsbL-0200_LatLon0.15_PT075H.grib2 2026-04-12 16:33 1.2M
20260412T12Z_MSC_GDPS_RelativeVorticity_IsbL-0250_LatLon0.15_PT075H.grib2 2026-04-12 16:33 1.3M
20260412T12Z_MSC_GDPS_RelativeVorticity_IsbL-0500_LatLon0.15_PT075H.grib2 2026-04-12 16:33 1.2M
20260412T12Z_MSC_GDPS_RelativeVorticity_IsbL-0700_LatLon0.15_PT075H.grib2 2026-04-12 16:33 1.3M
20260412T12Z_MSC_GDPS_RelativeVorticity_IsbL-0850_LatLon0.15_PT075H.grib2 2026-04-12 16:33 1.6M
20260412T12Z_MSC_GDPS_Runoff-Accum_Sfc_LatLon0.15_PT075H.grib2 2026-04-12 16:33 93K
20260412T12Z_MSC_GDPS_SensibleHeatNetFlux_Sfc_LatLon0.15_PT075H.grib2 2026-04-12 16:33 632K
20260412T12Z_MSC_GDPS_ShowalterIndex_IsbL-0500_LatLon0.15_PT075H.grib2 2026-04-12 16:33 6.2M
20260412T12Z_MSC_GDPS_Snow-Accum1h_Sfc_LatLon0.15_PT075H.grib2 2026-04-12 16:33 1.2M
20260412T12Z_MSC_GDPS_Snow-Accum3h_Sfc_LatLon0.15_PT075H.grib2 2026-04-12 16:33 1.1M
20260412T12Z_MSC_GDPS_Snow-Accum_Sfc_LatLon0.15_PT075H.grib2 2026-04-12 16:33 1.8M
20260412T12Z_MSC_GDPS_SnowDensity_Sfc_LatLon0.15_PT075H.grib2 2026-04-12 16:33 267K
20260412T12Z_MSC_GDPS_SnowDepth_Sfc_LatLon0.15_PT075H.grib2 2026-04-12 16:33 1.8M
20260412T12Z_MSC_GDPS_SoilTemp_DBS-0to10cm_LatLon0.15_PT075H.grib2 2026-04-12 16:33 507K
20260412T12Z_MSC_GDPS_SoilTemp_Sfc_LatLon0.15_PT075H.grib2 2026-04-12 16:33 577K
20260412T12Z_MSC_GDPS_SoilVolumetricIceContent_Sfc_LatLon0.15_PT075H.grib2 2026-04-12 16:33 225K
20260412T12Z_MSC_GDPS_SoilVolumetricWaterContent_DBS-0to10cm_LatLon0.15_PT075H.grib2 2026-04-12 16:33 551K
20260412T12Z_MSC_GDPS_SoilVolumetricWaterContent_DBS-0to1cm_LatLon0.15_PT075H.grib2 2026-04-12 16:33 650K
20260412T12Z_MSC_GDPS_SpecificHumidity_AGL-120m_LatLon0.15_PT075H.grib2 2026-04-12 16:33 1.1M
20260412T12Z_MSC_GDPS_SpecificHumidity_AGL-2m_LatLon0.15_PT075H.grib2 2026-04-12 16:33 1.2M
20260412T12Z_MSC_GDPS_SpecificHumidity_AGL-40m_LatLon0.15_PT075H.grib2 2026-04-12 16:33 1.1M
20260412T12Z_MSC_GDPS_SpecificHumidity_AGL-80m_LatLon0.15_PT075H.grib2 2026-04-12 16:33 1.1M
20260412T12Z_MSC_GDPS_SpecificHumidity_IsbL-0001_LatLon0.15_PT075H.grib2 2026-04-12 16:33 1.2M
20260412T12Z_MSC_GDPS_SpecificHumidity_IsbL-0005_LatLon0.15_PT075H.grib2 2026-04-12 16:33 1.1M
20260412T12Z_MSC_GDPS_SpecificHumidity_IsbL-0010_LatLon0.15_PT075H.grib2 2026-04-12 16:33 1.3M
20260412T12Z_MSC_GDPS_SpecificHumidity_IsbL-0020_LatLon0.15_PT075H.grib2 2026-04-12 16:33 1.3M
20260412T12Z_MSC_GDPS_SpecificHumidity_IsbL-0030_LatLon0.15_PT075H.grib2 2026-04-12 16:33 1.3M
20260412T12Z_MSC_GDPS_SpecificHumidity_IsbL-0050_LatLon0.15_PT075H.grib2 2026-04-12 16:33 1.3M
20260412T12Z_MSC_GDPS_SpecificHumidity_IsbL-0100_LatLon0.15_PT075H.grib2 2026-04-12 16:33 1.3M
20260412T12Z_MSC_GDPS_SpecificHumidity_IsbL-0150_LatLon0.15_PT075H.grib2 2026-04-12 16:33 1.3M
20260412T12Z_MSC_GDPS_SpecificHumidity_IsbL-0175_LatLon0.15_PT075H.grib2 2026-04-12 16:33 1.0M
20260412T12Z_MSC_GDPS_SpecificHumidity_IsbL-0200_LatLon0.15_PT075H.grib2 2026-04-12 16:33 1.1M
20260412T12Z_MSC_GDPS_SpecificHumidity_IsbL-0225_LatLon0.15_PT075H.grib2 2026-04-12 16:33 1.2M
20260412T12Z_MSC_GDPS_SpecificHumidity_IsbL-0250_LatLon0.15_PT075H.grib2 2026-04-12 16:33 1.2M
20260412T12Z_MSC_GDPS_SpecificHumidity_IsbL-0275_LatLon0.15_PT075H.grib2 2026-04-12 16:33 1.1M
20260412T12Z_MSC_GDPS_SpecificHumidity_IsbL-0300_LatLon0.15_PT075H.grib2 2026-04-12 16:33 1.2M
20260412T12Z_MSC_GDPS_SpecificHumidity_IsbL-0350_LatLon0.15_PT075H.grib2 2026-04-12 16:33 1.2M
20260412T12Z_MSC_GDPS_SpecificHumidity_IsbL-0400_LatLon0.15_PT075H.grib2 2026-04-12 16:33 1.4M
20260412T12Z_MSC_GDPS_SpecificHumidity_IsbL-0450_LatLon0.15_PT075H.grib2 2026-04-12 16:33 1.3M
20260412T12Z_MSC_GDPS_SpecificHumidity_IsbL-0500_LatLon0.15_PT075H.grib2 2026-04-12 16:33 1.5M
20260412T12Z_MSC_GDPS_SpecificHumidity_IsbL-0550_LatLon0.15_PT075H.grib2 2026-04-12 16:33 1.3M
20260412T12Z_MSC_GDPS_SpecificHumidity_IsbL-0600_LatLon0.15_PT075H.grib2 2026-04-12 16:33 1.4M
20260412T12Z_MSC_GDPS_SpecificHumidity_IsbL-0650_LatLon0.15_PT075H.grib2 2026-04-12 16:33 1.5M
20260412T12Z_MSC_GDPS_SpecificHumidity_IsbL-0700_LatLon0.15_PT075H.grib2 2026-04-12 16:33 1.6M
20260412T12Z_MSC_GDPS_SpecificHumidity_IsbL-0750_LatLon0.15_PT075H.grib2 2026-04-12 16:33 1.7M
20260412T12Z_MSC_GDPS_SpecificHumidity_IsbL-0800_LatLon0.15_PT075H.grib2 2026-04-12 16:33 1.8M
20260412T12Z_MSC_GDPS_SpecificHumidity_IsbL-0850_LatLon0.15_PT075H.grib2 2026-04-12 16:33 1.9M
20260412T12Z_MSC_GDPS_SpecificHumidity_IsbL-0875_LatLon0.15_PT075H.grib2 2026-04-12 16:33 1.6M
20260412T12Z_MSC_GDPS_SpecificHumidity_IsbL-0900_LatLon0.15_PT075H.grib2 2026-04-12 16:33 1.6M
20260412T12Z_MSC_GDPS_SpecificHumidity_IsbL-0925_LatLon0.15_PT075H.grib2 2026-04-12 16:33 1.6M
20260412T12Z_MSC_GDPS_SpecificHumidity_IsbL-0950_LatLon0.15_PT075H.grib2 2026-04-12 16:33 1.5M
20260412T12Z_MSC_GDPS_SpecificHumidity_IsbL-0970_LatLon0.15_PT075H.grib2 2026-04-12 16:33 1.5M
20260412T12Z_MSC_GDPS_SpecificHumidity_IsbL-0985_LatLon0.15_PT075H.grib2 2026-04-12 16:33 1.5M
20260412T12Z_MSC_GDPS_SpecificHumidity_IsbL-1000_LatLon0.15_PT075H.grib2 2026-04-12 16:33 1.5M
20260412T12Z_MSC_GDPS_SpecificHumidity_IsbL-1015_LatLon0.15_PT075H.grib2 2026-04-12 16:33 1.4M
20260412T12Z_MSC_GDPS_SpecificHumidity_Sfc_LatLon0.15_PT075H.grib2 2026-04-12 16:33 663K
20260412T12Z_MSC_GDPS_Thickness_IsbL-0850to0700_LatLon0.15_PT075H.grib2 2026-04-12 16:33 466K
20260412T12Z_MSC_GDPS_Thickness_IsbL-1000to0500_LatLon0.15_PT075H.grib2 2026-04-12 16:33 372K
20260412T12Z_MSC_GDPS_Thickness_IsbL-1000to0850_LatLon0.15_PT075H.grib2 2026-04-12 16:33 490K
20260412T12Z_MSC_GDPS_TotalCloudCover_Sfc_LatLon0.15_PT075H.grib2 2026-04-12 16:33 827K
20260412T12Z_MSC_GDPS_TotalTotalsIndex_Sfc_LatLon0.15_PT075H.grib2 2026-04-12 16:33 6.2M
20260412T12Z_MSC_GDPS_UVIndex-ClearSky_Sfc_LatLon0.15_PT075H.grib2 2026-04-12 17:05 1.0M
20260412T12Z_MSC_GDPS_UVIndex_Sfc_LatLon0.15_PT075H.grib2 2026-04-12 17:05 1.4M
20260412T12Z_MSC_GDPS_UpwardLongwaveRadiationFlux_NTAtm_LatLon0.15_PT075H.grib2 2026-04-12 16:33 837K
20260412T12Z_MSC_GDPS_VerticalVelocity_IsbL-0200_LatLon0.15_PT075H.grib2 2026-04-12 16:33 923K
20260412T12Z_MSC_GDPS_VerticalVelocity_IsbL-0250_LatLon0.15_PT075H.grib2 2026-04-12 16:33 1.1M
20260412T12Z_MSC_GDPS_VerticalVelocity_IsbL-0500_LatLon0.15_PT075H.grib2 2026-04-12 16:33 1.0M
20260412T12Z_MSC_GDPS_VerticalVelocity_IsbL-0600_LatLon0.15_PT075H.grib2 2026-04-12 16:33 1.1M
20260412T12Z_MSC_GDPS_VerticalVelocity_IsbL-0700_LatLon0.15_PT075H.grib2 2026-04-12 16:33 1.1M
20260412T12Z_MSC_GDPS_VerticalVelocity_IsbL-0850_LatLon0.15_PT075H.grib2 2026-04-12 16:33 1.6M
20260412T12Z_MSC_GDPS_WindChill_Sfc_LatLon0.15_PT075H.grib2 2026-04-12 16:33 5.3M
20260412T12Z_MSC_GDPS_WindDir_AGL-10m_LatLon0.15_PT075H.grib2 2026-04-12 16:33 1.3M
20260412T12Z_MSC_GDPS_WindDir_AGL-120m_LatLon0.15_PT075H.grib2 2026-04-12 16:33 1.4M
20260412T12Z_MSC_GDPS_WindDir_AGL-40m_LatLon0.15_PT075H.grib2 2026-04-12 16:33 1.4M
20260412T12Z_MSC_GDPS_WindDir_AGL-80m_LatLon0.15_PT075H.grib2 2026-04-12 16:33 1.4M
20260412T12Z_MSC_GDPS_WindDir_IsbL-0001_LatLon0.15_PT075H.grib2 2026-04-12 16:33 627K
20260412T12Z_MSC_GDPS_WindDir_IsbL-0005_LatLon0.15_PT075H.grib2 2026-04-12 16:33 780K
20260412T12Z_MSC_GDPS_WindDir_IsbL-0010_LatLon0.15_PT075H.grib2 2026-04-12 16:33 859K
20260412T12Z_MSC_GDPS_WindDir_IsbL-0020_LatLon0.15_PT075H.grib2 2026-04-12 16:33 925K
20260412T12Z_MSC_GDPS_WindDir_IsbL-0030_LatLon0.15_PT075H.grib2 2026-04-12 16:33 887K
20260412T12Z_MSC_GDPS_WindDir_IsbL-0050_LatLon0.15_PT075H.grib2 2026-04-12 16:33 951K
20260412T12Z_MSC_GDPS_WindDir_IsbL-0100_LatLon0.15_PT075H.grib2 2026-04-12 16:33 1.0M
20260412T12Z_MSC_GDPS_WindDir_IsbL-0150_LatLon0.15_PT075H.grib2 2026-04-12 16:33 1.0M
20260412T12Z_MSC_GDPS_WindDir_IsbL-0175_LatLon0.15_PT075H.grib2 2026-04-12 16:33 1.0M
20260412T12Z_MSC_GDPS_WindDir_IsbL-0200_LatLon0.15_PT075H.grib2 2026-04-12 16:33 1.1M
20260412T12Z_MSC_GDPS_WindDir_IsbL-0225_LatLon0.15_PT075H.grib2 2026-04-12 16:33 1.1M
20260412T12Z_MSC_GDPS_WindDir_IsbL-0250_LatLon0.15_PT075H.grib2 2026-04-12 16:33 1.1M
20260412T12Z_MSC_GDPS_WindDir_IsbL-0275_LatLon0.15_PT075H.grib2 2026-04-12 16:33 1.2M
20260412T12Z_MSC_GDPS_WindDir_IsbL-0300_LatLon0.15_PT075H.grib2 2026-04-12 16:33 1.2M
20260412T12Z_MSC_GDPS_WindDir_IsbL-0350_LatLon0.15_PT075H.grib2 2026-04-12 16:33 1.2M
20260412T12Z_MSC_GDPS_WindDir_IsbL-0400_LatLon0.15_PT075H.grib2 2026-04-12 16:33 1.3M
20260412T12Z_MSC_GDPS_WindDir_IsbL-0450_LatLon0.15_PT075H.grib2 2026-04-12 16:33 1.3M
20260412T12Z_MSC_GDPS_WindDir_IsbL-0500_LatLon0.15_PT075H.grib2 2026-04-12 16:33 1.4M
20260412T12Z_MSC_GDPS_WindDir_IsbL-0550_LatLon0.15_PT075H.grib2 2026-04-12 16:33 1.4M
20260412T12Z_MSC_GDPS_WindDir_IsbL-0600_LatLon0.15_PT075H.grib2 2026-04-12 16:33 1.5M
20260412T12Z_MSC_GDPS_WindDir_IsbL-0650_LatLon0.15_PT075H.grib2 2026-04-12 16:33 1.5M
20260412T12Z_MSC_GDPS_WindDir_IsbL-0700_LatLon0.15_PT075H.grib2 2026-04-12 16:33 1.6M
20260412T12Z_MSC_GDPS_WindDir_IsbL-0750_LatLon0.15_PT075H.grib2 2026-04-12 16:33 1.7M
20260412T12Z_MSC_GDPS_WindDir_IsbL-0800_LatLon0.15_PT075H.grib2 2026-04-12 16:33 1.8M
20260412T12Z_MSC_GDPS_WindDir_IsbL-0850_LatLon0.15_PT075H.grib2 2026-04-12 16:33 1.9M
20260412T12Z_MSC_GDPS_WindDir_IsbL-0875_LatLon0.15_PT075H.grib2 2026-04-12 16:33 2.0M
20260412T12Z_MSC_GDPS_WindDir_IsbL-0900_LatLon0.15_PT075H.grib2 2026-04-12 16:33 2.0M
20260412T12Z_MSC_GDPS_WindDir_IsbL-0925_LatLon0.15_PT075H.grib2 2026-04-12 16:33 2.0M
20260412T12Z_MSC_GDPS_WindDir_IsbL-0950_LatLon0.15_PT075H.grib2 2026-04-12 16:33 2.0M
20260412T12Z_MSC_GDPS_WindDir_IsbL-0970_LatLon0.15_PT075H.grib2 2026-04-12 16:33 2.0M
20260412T12Z_MSC_GDPS_WindDir_IsbL-0985_LatLon0.15_PT075H.grib2 2026-04-12 16:33 2.0M
20260412T12Z_MSC_GDPS_WindDir_IsbL-1000_LatLon0.15_PT075H.grib2 2026-04-12 16:33 2.1M
20260412T12Z_MSC_GDPS_WindDir_IsbL-1015_LatLon0.15_PT075H.grib2 2026-04-12 16:33 2.1M
20260412T12Z_MSC_GDPS_WindGust-Max_AGL-10m_LatLon0.15_PT075H.grib2 2026-04-12 16:33 2.2M
20260412T12Z_MSC_GDPS_WindGust-Min_AGL-10m_LatLon0.15_PT075H.grib2 2026-04-12 16:33 2.2M
20260412T12Z_MSC_GDPS_WindGust_AGL-10m_LatLon0.15_PT075H.grib2 2026-04-12 16:33 2.2M
20260412T12Z_MSC_GDPS_WindSpeed_AGL-10m_LatLon0.15_PT075H.grib2 2026-04-12 16:33 1.1M
20260412T12Z_MSC_GDPS_WindSpeed_AGL-120m_LatLon0.15_PT075H.grib2 2026-04-12 16:33 1.2M
20260412T12Z_MSC_GDPS_WindSpeed_AGL-40m_LatLon0.15_PT075H.grib2 2026-04-12 16:33 1.2M
20260412T12Z_MSC_GDPS_WindSpeed_AGL-80m_LatLon0.15_PT075H.grib2 2026-04-12 16:33 1.2M
20260412T12Z_MSC_GDPS_WindSpeed_IsbL-0001_LatLon0.15_PT075H.grib2 2026-04-12 16:33 635K
20260412T12Z_MSC_GDPS_WindSpeed_IsbL-0005_LatLon0.15_PT075H.grib2 2026-04-12 16:33 685K
20260412T12Z_MSC_GDPS_WindSpeed_IsbL-0010_LatLon0.15_PT075H.grib2 2026-04-12 16:33 625K
20260412T12Z_MSC_GDPS_WindSpeed_IsbL-0020_LatLon0.15_PT075H.grib2 2026-04-12 16:33 862K
20260412T12Z_MSC_GDPS_WindSpeed_IsbL-0030_LatLon0.15_PT075H.grib2 2026-04-12 16:33 855K
20260412T12Z_MSC_GDPS_WindSpeed_IsbL-0050_LatLon0.15_PT075H.grib2 2026-04-12 16:33 911K
20260412T12Z_MSC_GDPS_WindSpeed_IsbL-0100_LatLon0.15_PT075H.grib2 2026-04-12 16:33 1.1M
20260412T12Z_MSC_GDPS_WindSpeed_IsbL-0150_LatLon0.15_PT075H.grib2 2026-04-12 16:33 1.0M
20260412T12Z_MSC_GDPS_WindSpeed_IsbL-0175_LatLon0.15_PT075H.grib2 2026-04-12 16:33 1.0M
20260412T12Z_MSC_GDPS_WindSpeed_IsbL-0200_LatLon0.15_PT075H.grib2 2026-04-12 16:33 1.0M
20260412T12Z_MSC_GDPS_WindSpeed_IsbL-0225_LatLon0.15_PT075H.grib2 2026-04-12 16:33 1.1M
20260412T12Z_MSC_GDPS_WindSpeed_IsbL-0250_LatLon0.15_PT075H.grib2 2026-04-12 16:33 1.1M
20260412T12Z_MSC_GDPS_WindSpeed_IsbL-0275_LatLon0.15_PT075H.grib2 2026-04-12 16:33 1.1M
20260412T12Z_MSC_GDPS_WindSpeed_IsbL-0300_LatLon0.15_PT075H.grib2 2026-04-12 16:33 1.1M
20260412T12Z_MSC_GDPS_WindSpeed_IsbL-0350_LatLon0.15_PT075H.grib2 2026-04-12 16:33 1.1M
20260412T12Z_MSC_GDPS_WindSpeed_IsbL-0400_LatLon0.15_PT075H.grib2 2026-04-12 16:33 1.1M
20260412T12Z_MSC_GDPS_WindSpeed_IsbL-0450_LatLon0.15_PT075H.grib2 2026-04-12 16:33 1.1M
20260412T12Z_MSC_GDPS_WindSpeed_IsbL-0500_LatLon0.15_PT075H.grib2 2026-04-12 16:33 1.1M
20260412T12Z_MSC_GDPS_WindSpeed_IsbL-0550_LatLon0.15_PT075H.grib2 2026-04-12 16:33 1.1M
20260412T12Z_MSC_GDPS_WindSpeed_IsbL-0600_LatLon0.15_PT075H.grib2 2026-04-12 16:33 1.4M
20260412T12Z_MSC_GDPS_WindSpeed_IsbL-0650_LatLon0.15_PT075H.grib2 2026-04-12 16:33 1.4M
20260412T12Z_MSC_GDPS_WindSpeed_IsbL-0700_LatLon0.15_PT075H.grib2 2026-04-12 16:33 1.5M
20260412T12Z_MSC_GDPS_WindSpeed_IsbL-0750_LatLon0.15_PT075H.grib2 2026-04-12 16:33 1.6M
20260412T12Z_MSC_GDPS_WindSpeed_IsbL-0800_LatLon0.15_PT075H.grib2 2026-04-12 16:33 1.6M
20260412T12Z_MSC_GDPS_WindSpeed_IsbL-0850_LatLon0.15_PT075H.grib2 2026-04-12 16:33 1.7M
20260412T12Z_MSC_GDPS_WindSpeed_IsbL-0875_LatLon0.15_PT075H.grib2 2026-04-12 16:33 1.8M
20260412T12Z_MSC_GDPS_WindSpeed_IsbL-0900_LatLon0.15_PT075H.grib2 2026-04-12 16:33 1.8M
20260412T12Z_MSC_GDPS_WindSpeed_IsbL-0925_LatLon0.15_PT075H.grib2 2026-04-12 16:33 1.9M
20260412T12Z_MSC_GDPS_WindSpeed_IsbL-0950_LatLon0.15_PT075H.grib2 2026-04-12 16:33 1.9M
20260412T12Z_MSC_GDPS_WindSpeed_IsbL-0970_LatLon0.15_PT075H.grib2 2026-04-12 16:33 1.9M
20260412T12Z_MSC_GDPS_WindSpeed_IsbL-0985_LatLon0.15_PT075H.grib2 2026-04-12 16:33 1.9M
20260412T12Z_MSC_GDPS_WindSpeed_IsbL-1000_LatLon0.15_PT075H.grib2 2026-04-12 16:33 1.8M
20260412T12Z_MSC_GDPS_WindSpeed_IsbL-1015_LatLon0.15_PT075H.grib2 2026-04-12 16:33 1.8M
20260412T12Z_MSC_GDPS_WindU_AGL-10m_LatLon0.15_PT075H.grib2 2026-04-12 16:33 1.6M
20260412T12Z_MSC_GDPS_WindU_AGL-120m_LatLon0.15_PT075H.grib2 2026-04-12 16:33 1.0M
20260412T12Z_MSC_GDPS_WindU_AGL-40m_LatLon0.15_PT075H.grib2 2026-04-12 16:33 971K
20260412T12Z_MSC_GDPS_WindU_AGL-80m_LatLon0.15_PT075H.grib2 2026-04-12 16:33 1.0M
20260412T12Z_MSC_GDPS_WindU_IsbL-0001_LatLon0.15_PT075H.grib2 2026-04-12 16:33 497K
20260412T12Z_MSC_GDPS_WindU_IsbL-0005_LatLon0.15_PT075H.grib2 2026-04-12 16:33 684K
20260412T12Z_MSC_GDPS_WindU_IsbL-0010_LatLon0.15_PT075H.grib2 2026-04-12 16:33 699K
20260412T12Z_MSC_GDPS_WindU_IsbL-0020_LatLon0.15_PT075H.grib2 2026-04-12 16:33 736K
20260412T12Z_MSC_GDPS_WindU_IsbL-0030_LatLon0.15_PT075H.grib2 2026-04-12 16:33 734K
20260412T12Z_MSC_GDPS_WindU_IsbL-0050_LatLon0.15_PT075H.grib2 2026-04-12 16:33 703K
20260412T12Z_MSC_GDPS_WindU_IsbL-0100_LatLon0.15_PT075H.grib2 2026-04-12 16:33 925K
20260412T12Z_MSC_GDPS_WindU_IsbL-0150_LatLon0.15_PT075H.grib2 2026-04-12 16:33 1.0M
20260412T12Z_MSC_GDPS_WindU_IsbL-0175_LatLon0.15_PT075H.grib2 2026-04-12 16:33 1.0M
20260412T12Z_MSC_GDPS_WindU_IsbL-0200_LatLon0.15_PT075H.grib2 2026-04-12 16:33 839K
20260412T12Z_MSC_GDPS_WindU_IsbL-0225_LatLon0.15_PT075H.grib2 2026-04-12 16:33 852K
20260412T12Z_MSC_GDPS_WindU_IsbL-0250_LatLon0.15_PT075H.grib2 2026-04-12 16:33 855K
20260412T12Z_MSC_GDPS_WindU_IsbL-0275_LatLon0.15_PT075H.grib2 2026-04-12 16:33 883K
20260412T12Z_MSC_GDPS_WindU_IsbL-0300_LatLon0.15_PT075H.grib2 2026-04-12 16:33 873K
20260412T12Z_MSC_GDPS_WindU_IsbL-0350_LatLon0.15_PT075H.grib2 2026-04-12 16:33 887K
20260412T12Z_MSC_GDPS_WindU_IsbL-0400_LatLon0.15_PT075H.grib2 2026-04-12 16:33 1.1M
20260412T12Z_MSC_GDPS_WindU_IsbL-0450_LatLon0.15_PT075H.grib2 2026-04-12 16:33 1.1M
20260412T12Z_MSC_GDPS_WindU_IsbL-0500_LatLon0.15_PT075H.grib2 2026-04-12 16:33 1.1M
20260412T12Z_MSC_GDPS_WindU_IsbL-0550_LatLon0.15_PT075H.grib2 2026-04-12 16:33 1.1M
20260412T12Z_MSC_GDPS_WindU_IsbL-0600_LatLon0.15_PT075H.grib2 2026-04-12 16:33 1.1M
20260412T12Z_MSC_GDPS_WindU_IsbL-0650_LatLon0.15_PT075H.grib2 2026-04-12 16:33 1.2M
20260412T12Z_MSC_GDPS_WindU_IsbL-0700_LatLon0.15_PT075H.grib2 2026-04-12 16:33 1.2M
20260412T12Z_MSC_GDPS_WindU_IsbL-0750_LatLon0.15_PT075H.grib2 2026-04-12 16:33 1.3M
20260412T12Z_MSC_GDPS_WindU_IsbL-0800_LatLon0.15_PT075H.grib2 2026-04-12 16:33 1.4M
20260412T12Z_MSC_GDPS_WindU_IsbL-0850_LatLon0.15_PT075H.grib2 2026-04-12 16:33 1.4M
20260412T12Z_MSC_GDPS_WindU_IsbL-0875_LatLon0.15_PT075H.grib2 2026-04-12 16:33 1.5M
20260412T12Z_MSC_GDPS_WindU_IsbL-0900_LatLon0.15_PT075H.grib2 2026-04-12 16:33 1.5M
20260412T12Z_MSC_GDPS_WindU_IsbL-0925_LatLon0.15_PT075H.grib2 2026-04-12 16:33 1.4M
20260412T12Z_MSC_GDPS_WindU_IsbL-0950_LatLon0.15_PT075H.grib2 2026-04-12 16:33 1.4M
20260412T12Z_MSC_GDPS_WindU_IsbL-0970_LatLon0.15_PT075H.grib2 2026-04-12 16:33 1.4M
20260412T12Z_MSC_GDPS_WindU_IsbL-0985_LatLon0.15_PT075H.grib2 2026-04-12 16:33 1.7M
20260412T12Z_MSC_GDPS_WindU_IsbL-1000_LatLon0.15_PT075H.grib2 2026-04-12 16:33 1.7M
20260412T12Z_MSC_GDPS_WindU_IsbL-1015_LatLon0.15_PT075H.grib2 2026-04-12 16:33 1.7M
20260412T12Z_MSC_GDPS_WindV_AGL-10m_LatLon0.15_PT075H.grib2 2026-04-12 16:33 1.3M
20260412T12Z_MSC_GDPS_WindV_AGL-120m_LatLon0.15_PT075H.grib2 2026-04-12 16:33 1.0M
20260412T12Z_MSC_GDPS_WindV_AGL-40m_LatLon0.15_PT075H.grib2 2026-04-12 16:33 971K
20260412T12Z_MSC_GDPS_WindV_AGL-80m_LatLon0.15_PT075H.grib2 2026-04-12 16:33 1.0M
20260412T12Z_MSC_GDPS_WindV_IsbL-0001_LatLon0.15_PT075H.grib2 2026-04-12 16:33 543K
20260412T12Z_MSC_GDPS_WindV_IsbL-0005_LatLon0.15_PT075H.grib2 2026-04-12 16:33 604K
20260412T12Z_MSC_GDPS_WindV_IsbL-0010_LatLon0.15_PT075H.grib2 2026-04-12 16:33 802K
20260412T12Z_MSC_GDPS_WindV_IsbL-0020_LatLon0.15_PT075H.grib2 2026-04-12 16:33 856K
20260412T12Z_MSC_GDPS_WindV_IsbL-0030_LatLon0.15_PT075H.grib2 2026-04-12 16:33 932K
20260412T12Z_MSC_GDPS_WindV_IsbL-0050_LatLon0.15_PT075H.grib2 2026-04-12 16:33 1.0M
20260412T12Z_MSC_GDPS_WindV_IsbL-0100_LatLon0.15_PT075H.grib2 2026-04-12 16:33 1.1M
20260412T12Z_MSC_GDPS_WindV_IsbL-0150_LatLon0.15_PT075H.grib2 2026-04-12 16:33 1.0M
20260412T12Z_MSC_GDPS_WindV_IsbL-0175_LatLon0.15_PT075H.grib2 2026-04-12 16:33 1.0M
20260412T12Z_MSC_GDPS_WindV_IsbL-0200_LatLon0.15_PT075H.grib2 2026-04-12 16:33 835K
20260412T12Z_MSC_GDPS_WindV_IsbL-0225_LatLon0.15_PT075H.grib2 2026-04-12 16:33 903K
20260412T12Z_MSC_GDPS_WindV_IsbL-0250_LatLon0.15_PT075H.grib2 2026-04-12 16:33 906K
20260412T12Z_MSC_GDPS_WindV_IsbL-0275_LatLon0.15_PT075H.grib2 2026-04-12 16:33 933K
20260412T12Z_MSC_GDPS_WindV_IsbL-0300_LatLon0.15_PT075H.grib2 2026-04-12 16:33 923K
20260412T12Z_MSC_GDPS_WindV_IsbL-0350_LatLon0.15_PT075H.grib2 2026-04-12 16:33 877K
20260412T12Z_MSC_GDPS_WindV_IsbL-0400_LatLon0.15_PT075H.grib2 2026-04-12 16:33 872K
20260412T12Z_MSC_GDPS_WindV_IsbL-0450_LatLon0.15_PT075H.grib2 2026-04-12 16:33 1.1M
20260412T12Z_MSC_GDPS_WindV_IsbL-0500_LatLon0.15_PT075H.grib2 2026-04-12 16:33 1.1M
20260412T12Z_MSC_GDPS_WindV_IsbL-0550_LatLon0.15_PT075H.grib2 2026-04-12 16:33 1.1M
20260412T12Z_MSC_GDPS_WindV_IsbL-0600_LatLon0.15_PT075H.grib2 2026-04-12 16:33 1.1M
20260412T12Z_MSC_GDPS_WindV_IsbL-0650_LatLon0.15_PT075H.grib2 2026-04-12 16:33 1.2M
20260412T12Z_MSC_GDPS_WindV_IsbL-0700_LatLon0.15_PT075H.grib2 2026-04-12 16:33 1.2M
20260412T12Z_MSC_GDPS_WindV_IsbL-0750_LatLon0.15_PT075H.grib2 2026-04-12 16:33 1.3M
20260412T12Z_MSC_GDPS_WindV_IsbL-0800_LatLon0.15_PT075H.grib2 2026-04-12 16:33 1.3M
20260412T12Z_MSC_GDPS_WindV_IsbL-0850_LatLon0.15_PT075H.grib2 2026-04-12 16:33 1.4M
20260412T12Z_MSC_GDPS_WindV_IsbL-0875_LatLon0.15_PT075H.grib2 2026-04-12 16:33 1.4M
20260412T12Z_MSC_GDPS_WindV_IsbL-0900_LatLon0.15_PT075H.grib2 2026-04-12 16:33 1.5M
20260412T12Z_MSC_GDPS_WindV_IsbL-0925_LatLon0.15_PT075H.grib2 2026-04-12 16:33 1.5M
20260412T12Z_MSC_GDPS_WindV_IsbL-0950_LatLon0.15_PT075H.grib2 2026-04-12 16:33 1.4M
20260412T12Z_MSC_GDPS_WindV_IsbL-0970_LatLon0.15_PT075H.grib2 2026-04-12 16:33 1.4M
20260412T12Z_MSC_GDPS_WindV_IsbL-0985_LatLon0.15_PT075H.grib2 2026-04-12 16:33 1.4M
20260412T12Z_MSC_GDPS_WindV_IsbL-1000_LatLon0.15_PT075H.grib2 2026-04-12 16:33 1.4M
20260412T12Z_MSC_GDPS_WindV_IsbL-1015_LatLon0.15_PT075H.grib2 2026-04-12 16:33 1.4M